CW5581 Weather Reports


time (UTC)temp
C
wind
direction
speed
KPH
gust
KPH
rain 1hr
cm
rain 24hr
cm
rain mn
cm
humidity
%
barometer
mb
20260505124555 8 27 0.0 3.2 0.00 0.00 0.00 95 1013.4
20260505123101 9 26 0.0 3.2 0.00 0.00 0.00 95 1013.3
20260505121506 9 28 0.0 1.6 0.00 0.00 0.00 95 1013.3
20260505120101 9 26 0.0 3.2 0.00 0.00 0.00 95 1013.3
20260505114601 9 28 0.0 3.2 0.00 0.00 0.00 95 1013.1
20260505114502 9 26 0.0 3.2 0.00 0.00 0.00 95 1013.1
20260505113111 8 25 0.0 4.8 0.00 0.00 0.00 95 1013.2
20260505111514 8 343 0.0 3.2 0.00 0.00 0.00 95 1013.3
20260505101600 9 343 0.0 4.8 0.00 0.00 0.00 95 1012.8
20260505101503 9 41 0.0 4.8 0.00 0.00 0.00 95 1012.8
20260505100053 9 278 0.0 6.4 0.00 0.00 0.00 95 1012.7
20260505094536 8 299 1.6 3.2 0.00 0.00 0.00 95 1012.5
20260505093050 8 343 0.0 3.2 0.00 0.00 0.00 94 1012.3
20260505091548 9 343 0.0 6.4 0.00 0.00 0.00 94 1012.4
20260505090030 9 317 0.0 6.4 0.00 0.00 0.00 94 1012.3
20260505084516 9 308 0.0 6.4 0.00 0.00 0.00 94 1012.4
20260505083022 9 1 1.6 6.4 0.00 0.00 0.00 93 1012.2
20260505081509 9 15 1.6 8.0 0.00 0.00 0.00 93 1012.1
20260505080006 9 353 3.2 8.0 0.00 0.00 0.00 92 1012.1
20260505074606 10 341 1.6 6.4 0.00 0.00 0.00 92 1012.1
20260505073049 10 348 1.6 4.8 0.00 0.00 0.00 91 1011.9
20260505071550 10 281 1.6 8.0 0.00 0.00 0.00 90 1011.7
20260505070029 10 290 3.2 6.4 0.00 0.00 0.00 88 1011.6
20260505064508 11 272 1.6 9.7 0.00 0.00 0.00 87 1011.4
20260505063138 11 273 1.6 9.7 0.00 0.00 0.00 84 1011.3
20260505061615 11 312 1.6 6.4 0.00 0.00 0.00 82 1011.2
20260505060044 12 317 4.8 8.0 0.00 0.00 0.00 79 1011.1
20260505054538 12 317 3.2 8.0 0.00 0.00 0.00 77 1010.9
20260505053058 12 317 3.2 8.0 0.00 0.00 0.00 77 1010.9
20260505051536 13 317 1.6 8.0 0.00 0.00 0.00 76 1010.9
20260505041534 14 296 1.6 8.0 0.00 0.00 0.00 72 1010.7
20260505040036 15 299 3.2 8.0 0.00 0.00 0.00 70 1010.6
20260505034550 15 266 3.2 6.4 0.00 0.00 0.00 68 1010.5
20260505033055 16 271 3.2 9.7 0.00 0.00 0.00 66 1010.3
20260505031557 16 286 1.6 6.4 0.00 0.00 0.00 63 1010.2
20260505030050 17 278 3.2 9.7 0.00 0.00 0.00 60 1010.0
20260505024550 18 260 4.8 12.9 0.00 0.00 0.00 57 1009.7
20260505023042 19 286 3.2 6.4 0.00 0.00 0.00 52 1009.8
20260505021538 20 237 4.8 11.3 0.00 0.00 0.00 48 1009.8
20260505020036 21 214 4.8 16.1 0.00 0.00 0.00 49 1009.7
20260505014524 22 216 4.8 11.3 0.00 0.00 0.00 48 1009.8
20260505013016 23 219 6.4 11.3 0.00 0.00 0.00 47 1009.8
20260505011511 23 206 4.8 12.9 0.00 0.00 0.00 47 1009.7
20260505010005 23 288 3.2 16.1 0.00 0.00 0.00 47 1009.7
20260505004552 23 284 4.8 12.9 0.00 0.00 0.00 48 1009.7
20260505003054 23 188 3.2 12.9 0.00 0.00 0.00 48 1009.9
20260505001543 23 184 6.4 14.5 0.00 0.00 0.00 50 1009.7
20260505000038 23 247 8.0 19.3 0.00 0.00 0.00 52 1009.6
20260504234537 23 296 6.4 20.9 0.00 0.00 0.00 51 1009.6
20260504233042 24 246 4.8 17.7 0.00 0.00 0.00 49 1009.7
20260504231539 24 219 6.4 16.1 0.00 0.00 0.00 49 1009.7
20260504230028 23 326 4.8 19.3 0.00 0.00 0.00 52 1009.7
20260504224513 22 292 6.4 16.1 0.00 0.00 0.00 52 1009.9
20260504223012 23 237 11.3 17.7 0.00 0.00 0.00 47 1010.0
20260504221503 23 238 3.2 17.7 0.00 0.00 0.00 46 1010.0
20260504220058 23 234 4.8 19.3 0.00 0.00 0.00 47 1010.1
20260504214554 23 262 6.4 19.3 0.00 0.00 0.00 46 1010.2
20260504213039 24 302 8.0 24.1 0.00 0.00 0.00 44 1010.2
20260504211527 25 312 6.4 17.7 0.00 0.00 0.00 43 1010.4
20260504210017 26 263 6.4 17.7 0.00 0.00 0.00 43 1010.4
20260504204508 23 257 6.4 17.7 0.00 0.00 0.00 46 1010.6
20260504203106 24 278 0.0 9.7 0.00 0.00 0.00 46 1010.6
20260504201546 23 241 1.6 14.5 0.00 0.00 0.00 46 1010.7
20260504200057 23 312 4.8 17.7 0.00 0.00 0.00 48 1010.8
20260504194600 23 281 8.0 14.5 0.00 0.00 0.00 43 1010.8
20260504193042 23 215 4.8 16.1 0.00 0.00 0.00 46 1010.8
20260504191531 22 287 6.4 17.7 0.00 0.00 0.00 45 1010.9
20260504190021 23 213 3.2 14.5 0.00 0.00 0.00 43 1010.9
20260504184509 25 270 3.2 12.9 0.00 0.00 0.00 43 1011.0
20260504183059 24 278 3.2 9.7 0.00 0.00 0.00 45 1011.0
20260504181549 24 277 3.2 14.5 0.00 0.00 0.00 49 1010.9
20260504180032 23 243 3.2 9.7 0.00 0.00 0.00 48 1010.8
20260504174515 24 212 3.2 9.7 0.00 0.00 0.00 44 1010.8
20260504173004 24 269 4.8 12.9 0.00 0.00 0.00 45 1010.8
20260504171513 23 228 3.2 6.4 0.00 0.00 0.00 47 1010.8